DW8293 Hedemora SE current weather conditions

sailwx.info

Wind from 090 at 1 knots gusting 2

Air temperature 9.4° C
Dewpoint 9.3° C

Last reported at 2018-Oct-17 03:09 UTC.
Time now 2018-Oct-17 03:44 UTC

Location: N 60°16' E 015°60'.
View on Google Maps.

See reports from other nearby stations

  
Tides and Currents Weather Stations Pressure Air Temp Water Temp Dewpoint Dewpoint Depression Visibility Wind Speed Wind Dir Waves Ship Positions
date/time (UTC)wind fromknots sea level pressurealtimeterstation pressurevisibilityair tempwater tempwave heightnotes
2018-Oct-17 03:09 090 1 gusting 2 9.4
2018-Oct-17 03:00 116 0 gusting 2 9.4
2018-Oct-17 02:51 114 0 gusting 2 9.4
2018-Oct-17 02:42 110 0 gusting 3 8.9
2018-Oct-17 02:33 110 1 gusting 3 8.9
2018-Oct-17 02:24 103 8.9
2018-Oct-17 02:15 118 8.9
2018-Oct-17 02:06 157 8.9
2018-Oct-17 01:57 140 1 gusting 3 8.9
2018-Oct-17 01:48 141 0 gusting 2 8.9
2018-Oct-17 01:39 126 1 gusting 2 8.9
2018-Oct-17 01:30 111 8.9
2018-Oct-17 01:21 148 0 gusting 3 8.9
2018-Oct-17 01:12 132 0 gusting 3 8.9
2018-Oct-17 01:03 110 1 gusting 3 8.3
2018-Oct-17 00:54 095 1 gusting 2 8.3
2018-Oct-17 00:45 140 8.3
2018-Oct-17 00:36 185 8.9
2018-Oct-17 00:27 165 8.3
2018-Oct-17 00:18 174 0 gusting 3 8.3
2018-Oct-17 00:09 164 1 gusting 2 8.3
2018-Oct-17 00:00 122 8.3
2018-Oct-16 23:51 090 8.3
2018-Oct-16 23:42 092 2 gusting 3 8.3
2018-Oct-16 23:33 130 8.3
2018-Oct-16 23:24 131 8.3
2018-Oct-16 23:15 137 1 gusting 3 8.3
2018-Oct-16 23:06 096 8.3
2018-Oct-16 22:57 092 0 gusting 3 8.3
2018-Oct-16 22:48 113 8.3
2018-Oct-16 22:39 114 8.3
2018-Oct-16 22:30 107 1 gusting 3 8.3
2018-Oct-16 22:21 113 1 gusting 3 8.3
2018-Oct-16 22:12 094 1 gusting 3 8.3
2018-Oct-16 22:03 091 1 gusting 3 8.3
2018-Oct-16 21:54 091 1 gusting 4 8.3
2018-Oct-16 21:45 095 1 gusting 3 8.3
2018-Oct-16 21:36 079 1 gusting 3 8.3
2018-Oct-16 21:27 088 2 gusting 4 7.8
2018-Oct-16 21:18 112 1 gusting 3 7.8
2018-Oct-16 21:09 091 1 gusting 3 7.8
2018-Oct-16 21:00 090 1 gusting 2 7.8
2018-Oct-16 20:51 105 7.8
2018-Oct-16 20:42 095 0 gusting 3 7.8
2018-Oct-16 20:33 090 1 gusting 3 7.8
2018-Oct-16 20:24 090 1 gusting 5 7.8
2018-Oct-16 20:15 096 1 gusting 5 7.8
2018-Oct-16 20:06 094 1 gusting 6 7.8
2018-Oct-16 19:57 095 3 gusting 5 7.8
2018-Oct-16 19:48 090 1 gusting 6 7.8
2018-Oct-16 19:39 093 3 gusting 5 7.8
2018-Oct-16 19:30 099 2 gusting 5 7.8
2018-Oct-16 19:21 090 2 gusting 3 8.3
2018-Oct-16 19:12 081 1 gusting 3 8.3
2018-Oct-16 19:03 088 2 gusting 5 8.3
2018-Oct-16 18:54 090 2 gusting 6 8.3
2018-Oct-16 18:45 078 2 gusting 4 8.3
2018-Oct-16 18:36 093 1 gusting 3 8.3
2018-Oct-16 18:27 103 1 gusting 4 8.3
2018-Oct-16 18:18 115 2 gusting 5 8.9
2018-Oct-16 18:09 097 1 gusting 5 8.9
2018-Oct-16 18:00 090 3 gusting 6 8.9
2018-Oct-16 17:51 111 2 gusting 4 8.9
2018-Oct-16 17:42 111 3 gusting 6 8.9
2018-Oct-16 17:33 113 1 gusting 6 8.9
2018-Oct-16 17:24 111 1 gusting 4 8.9
2018-Oct-16 17:15 090 2 gusting 6 8.9
2018-Oct-16 17:06 090 4 gusting 6 8.9
2018-Oct-16 16:57 084 1 gusting 3 9.4
2018-Oct-16 16:48 094 1 gusting 3 9.4
2018-Oct-16 16:39 083 1 gusting 4 9.4
2018-Oct-16 16:30 085 3 gusting 4 9.4
2018-Oct-16 16:21 094 1 gusting 4 9.4
2018-Oct-16 16:12 082 2 gusting 5 9.4
2018-Oct-16 16:03 090 3 gusting 5 9.4
2018-Oct-16 15:54 091 1 gusting 6 9.4
2018-Oct-16 15:45 093 3 gusting 6 9.4
2018-Oct-16 15:36 101 3 gusting 5 9.4
2018-Oct-16 15:27 107 2 gusting 6 9.4
2018-Oct-16 15:18 104 2 gusting 6 9.4
2018-Oct-16 15:09 103 2 gusting 6 9.4
2018-Oct-16 15:00 088 4 gusting 6 10.0
2018-Oct-16 14:51 067 3 gusting 5 10.0
2018-Oct-16 14:42 081 1 gusting 5 10.0
2018-Oct-16 14:33 078 1 gusting 5 10.0
2018-Oct-16 14:24 079 3 gusting 5 10.0
2018-Oct-16 14:15 076 3 gusting 5 10.0
2018-Oct-16 14:06 048 1 gusting 5 10.0
2018-Oct-16 13:57 091 2 gusting 4 10.0
2018-Oct-16 13:48 061 2 gusting 4 10.0
2018-Oct-16 13:39 080 10.6
2018-Oct-16 13:30 082 1 gusting 5 10.0
2018-Oct-16 13:21 097 3 gusting 7 10.0
2018-Oct-16 13:12 087 3 gusting 6 10.6
2018-Oct-16 13:03 038 3 gusting 5 10.6
2018-Oct-16 12:54 080 1 gusting 6 10.6
2018-Oct-16 12:45 053 3 gusting 6 10.6
2018-Oct-16 12:36 082 3 gusting 6 10.6
2018-Oct-16 12:27 029 1 gusting 5 10.6
2018-Oct-16 12:18 021 3 gusting 6 11.1
2018-Oct-16 12:09 017 1 gusting 6 11.1
2018-Oct-16 12:00 028 1 gusting 4 11.1
2018-Oct-16 11:51 021 1 gusting 3 11.7
2018-Oct-16 11:42 043 0 gusting 4 11.7
2018-Oct-16 11:33 056 3 gusting 4 11.7
2018-Oct-16 11:24 050 1 gusting 4 11.1
2018-Oct-16 11:15 015 1 gusting 4 11.1
2018-Oct-16 11:06 014 0 gusting 4 11.7
2018-Oct-16 10:57 038 2 gusting 4 11.7
2018-Oct-16 10:48 011 0 gusting 5 11.7
2018-Oct-16 10:39 014 11.7
2018-Oct-16 10:30 003 1 gusting 5 11.7
2018-Oct-16 10:21 346 1 gusting 5 12.2
2018-Oct-16 10:12 018 1 gusting 4 11.7
2018-Oct-16 10:03 002 0 gusting 4 11.7
2018-Oct-16 09:54 355 1 gusting 5 11.7
2018-Oct-16 09:45 047 0 gusting 4 11.7
2018-Oct-16 09:36 312 1 gusting 3 11.7
2018-Oct-16 09:27 352 1 gusting 3 11.7
2018-Oct-16 09:18 359 0 gusting 5 11.7
2018-Oct-16 09:09 359 3 gusting 5 12.2
2018-Oct-16 09:00 006 0 gusting 6 12.2
2018-Oct-16 08:51 345 1 gusting 5 11.7
2018-Oct-16 08:42 349 3 gusting 6 11.7
2018-Oct-16 08:33 346 1 gusting 4 11.7
2018-Oct-16 08:24 333 1 gusting 3 11.1
2018-Oct-16 08:15 317 1 gusting 5 10.6
2018-Oct-16 08:06 336 0 gusting 5 10.6
2018-Oct-16 07:57 345 2 gusting 6 10.0
2018-Oct-16 07:48 340 3 gusting 6 10.0
2018-Oct-16 07:39 347 1 gusting 6 10.0
2018-Oct-16 07:30 321 1 gusting 5 10.0
2018-Oct-16 07:21 350 0 gusting 5 10.0
2018-Oct-16 07:12 326 1 gusting 4 9.4
2018-Oct-16 07:03 313 1 gusting 4 8.9
2018-Oct-16 06:54 318 1 gusting 5 8.9
2018-Oct-16 06:45 311 1 gusting 5 8.3
2018-Oct-16 06:36 318 1 gusting 6 8.3
2018-Oct-16 06:27 314 3 gusting 6 8.9
2018-Oct-16 06:18 322 1 gusting 5 8.9
2018-Oct-16 06:09 322 1 gusting 4 9.4
2018-Oct-16 06:00 304 2 gusting 4 9.4
2018-Oct-16 05:51 315 1 gusting 4 10.0
2018-Oct-16 05:42 324 1 gusting 5 10.0
2018-Oct-16 05:33 313 2 gusting 6 10.0
2018-Oct-16 05:24 316 1 gusting 6 10.6
2018-Oct-16 05:15 313 3 gusting 6 10.6
2018-Oct-16 05:06 289 3 gusting 6 10.6
2018-Oct-16 04:57 327 3 gusting 6 10.6
2018-Oct-16 04:48 332 1 gusting 6 10.6
2018-Oct-16 04:39 338 0 gusting 3 11.1
2018-Oct-16 04:30 307 11.1
2018-Oct-16 04:21 300 3 gusting 6 11.1
2018-Oct-16 04:12 302 2 gusting 6 11.7
2018-Oct-16 04:03 310 3 gusting 6 11.7
2018-Oct-16 03:54 316 3 gusting 6 11.7
2018-Oct-16 03:45 308 1 gusting 8 11.7
2018-Oct-16 03:36 304 2 gusting 6 11.7
2018-Oct-16 03:27 314 3 gusting 6 11.7
2018-Oct-16 03:18 314 3 gusting 6 11.7
2018-Oct-16 03:09 301 2 gusting 6 11.7
2018-Oct-16 03:00 308 3 gusting 6 11.7
2018-Oct-16 02:51 306 2 gusting 6 11.7
2018-Oct-16 02:42 286 1 gusting 3 12.2
2018-Oct-16 02:33 284 12.2
2018-Oct-16 02:24 297 1 gusting 3 12.2
2018-Oct-16 02:15 272 1 gusting 4 12.2
2018-Oct-16 02:06 270 1 gusting 2 12.2
2018-Oct-16 01:57 12.2
2018-Oct-16 01:48 12.2
2018-Oct-16 01:39 257 12.2
2018-Oct-16 01:30 266 12.2
2018-Oct-16 01:21 235 12.2
2018-Oct-16 01:12 314 12.2
2018-Oct-16 01:03 12.2
2018-Oct-16 00:54 323 12.2
2018-Oct-16 00:45 306 12.2
2018-Oct-16 00:36 284 12.2
2018-Oct-16 00:27 239 12.8
2018-Oct-16 00:18 248 1 gusting 3 12.8
2018-Oct-16 00:09 251 0 gusting 2 12.8
2018-Oct-16 00:00 285 12.8
2018-Oct-15 23:51 299 0 gusting 5 12.8
2018-Oct-15 23:42 306 2 gusting 6 12.8
2018-Oct-15 23:33 273 3 gusting 6 13.3
2018-Oct-15 23:24 300 1 gusting 5 13.3
2018-Oct-15 23:15 286 1 gusting 4 13.3
2018-Oct-15 23:06 270 1 gusting 6 13.3
2018-Oct-15 22:57 280 2 gusting 6 13.3
2018-Oct-15 22:48 252 1 gusting 9 13.3
2018-Oct-15 22:39 263 6 gusting 10 13.3
2018-Oct-15 22:30 288 3 gusting 9 13.9
2018-Oct-15 22:21 289 3 gusting 8 13.9
2018-Oct-15 22:12 284 4 gusting 10 14.4
2018-Oct-15 22:03 260 4 gusting 10 15.0
2018-Oct-15 21:54 234 1 gusting 4 15.0
2018-Oct-15 21:45 242 1 gusting 4 15.0
2018-Oct-15 21:36 15.0
2018-Oct-15 21:27 14.4
2018-Oct-15 21:18 14.4
2018-Oct-15 21:09 14.4
2018-Oct-15 21:00 13.9
2018-Oct-15 20:51 13.9
2018-Oct-15 20:42 13.9
2018-Oct-15 20:33 13.9
2018-Oct-15 20:24 13.9
2018-Oct-15 20:15 13.9
2018-Oct-15 20:06 14.4
2018-Oct-15 19:57 14.4
2018-Oct-15 19:48 109 15.0
2018-Oct-15 19:39 135 15.0
2018-Oct-15 19:30 186 15.0
2018-Oct-15 19:21 181 0 gusting 2 14.4
2018-Oct-15 19:12 14.4
2018-Oct-15 19:03 314 14.4
2018-Oct-15 18:54 14.4
2018-Oct-15 18:45 314 14.4
2018-Oct-15 18:36 320 15.0
2018-Oct-15 18:27 308 15.6
2018-Oct-15 18:18 171 15.6
2018-Oct-15 18:09 212 15.6
2018-Oct-15 18:00 212 0 gusting 3 15.6
2018-Oct-15 17:51 169 1 gusting 5 15.6
2018-Oct-15 17:42 173 3 gusting 6 15.6
2018-Oct-15 17:33 167 2 gusting 5 15.6
2018-Oct-15 17:24 182 3 gusting 6 15.6
2018-Oct-15 17:15 187 0 gusting 6 15.6
2018-Oct-15 17:06 166 1 gusting 6 15.6
2018-Oct-15 16:57 166 2 gusting 6 16.1
2018-Oct-15 16:48 171 1 gusting 5 16.1
2018-Oct-15 16:39 182 2 gusting 6 16.1
2018-Oct-15 16:30 192 1 gusting 6 16.1
2018-Oct-15 16:21 173 3 gusting 6 16.1
2018-Oct-15 16:12 168 3 gusting 6 16.1
2018-Oct-15 16:03 188 3 gusting 6 16.1
2018-Oct-15 15:54 166 1 gusting 3 16.1
2018-Oct-15 15:45 173 1 gusting 4 16.7
2018-Oct-15 15:36 173 2 gusting 5 16.7
2018-Oct-15 15:27 161 2 gusting 6 16.7
2018-Oct-15 15:18 178 4 gusting 6 17.2
2018-Oct-15 15:09 170 1 gusting 6 17.8
2018-Oct-15 15:00 175 1 gusting 6 18.3
2018-Oct-15 14:51 160 1 gusting 6 18.3
2018-Oct-15 14:42 173 3 gusting 6 18.3
2018-Oct-15 14:33 160 1 gusting 6 18.3
2018-Oct-15 14:24 158 3 gusting 7 18.3
2018-Oct-15 14:15 163 3 gusting 6 18.9
2018-Oct-15 14:06 179 1 gusting 8 19.4
2018-Oct-15 13:57 178 2 gusting 9 19.4
2018-Oct-15 13:48 166 1 gusting 9 18.9
2018-Oct-15 13:39 189 3 gusting 9 19.4
2018-Oct-15 13:30 174 3 gusting 9 19.4
2018-Oct-15 13:21 186 6 gusting 9 19.4
2018-Oct-15 13:12 172 6 gusting 9 19.4
2018-Oct-15 13:03 183 3 gusting 9 19.4
2018-Oct-15 12:54 166 4 gusting 11 19.4
2018-Oct-15 12:45 195 7 gusting 11 18.9
2018-Oct-15 12:36 203 2 gusting 9 19.4
2018-Oct-15 12:27 193 3 gusting 9 19.4
2018-Oct-15 12:18 164 5 gusting 9 20.0
2018-Oct-15 12:09 164 5 gusting 7 20.0
2018-Oct-15 12:00 166 3 gusting 9 20.0
2018-Oct-15 11:51 155 3 gusting 8 20.0
2018-Oct-15 11:42 176 3 gusting 12 20.0
2018-Oct-15 11:33 161 3 gusting 7 20.0
2018-Oct-15 11:24 152 1 gusting 6 20.0
2018-Oct-15 11:15 186 1 gusting 4 19.4
2018-Oct-15 11:06 170 1 gusting 5 18.3
2018-Oct-15 10:57 165 1 gusting 6 17.8
2018-Oct-15 10:48 163 2 gusting 8 18.3
2018-Oct-15 10:39 146 1 gusting 6 18.3
2018-Oct-15 10:30 159 3 gusting 8 17.8
2018-Oct-15 10:21 174 3 gusting 6 17.8
2018-Oct-15 10:12 168 3 gusting 9 17.2
2018-Oct-15 10:03 147 2 gusting 6 17.8
2018-Oct-15 09:54 168 1 gusting 5 17.2
2018-Oct-15 09:45 158 2 gusting 5 16.7
2018-Oct-15 09:36 170 1 gusting 3 17.2
2018-Oct-15 09:27 184 1 gusting 3 16.1
2018-Oct-15 09:18 152 0 gusting 4 15.0
2018-Oct-15 09:09 116 1 gusting 4 13.9
2018-Oct-15 09:00 093 0 gusting 3 12.8
2018-Oct-15 08:51 093 1 gusting 6 11.7
2018-Oct-15 08:42 088 3 gusting 6 11.7
2018-Oct-15 08:33 080 1 gusting 3 11.1
2018-Oct-15 08:24 073 1 gusting 4 11.1
2018-Oct-15 08:15 080 2 gusting 4 11.1
2018-Oct-15 08:06 089 1 gusting 3 11.1
2018-Oct-15 07:57 093 0 gusting 3 10.6
2018-Oct-15 07:48 076 1 gusting 3 11.1
2018-Oct-15 07:39 057 10.6
2018-Oct-15 07:30 051 0 gusting 1 10.6
2018-Oct-15 07:21 034 10.6
2018-Oct-15 07:12 101 10.0
2018-Oct-15 07:03 101 9.4
2018-Oct-15 06:54 071 0 gusting 3 9.4
2018-Oct-15 06:45 065 1 gusting 2 8.9
2018-Oct-15 06:36 088 8.9
2018-Oct-15 06:27 090 0 gusting 1 8.3
2018-Oct-15 06:18 085 0 gusting 1 8.3
2018-Oct-15 06:09 7.8
2018-Oct-15 06:00 097 7.8
2018-Oct-15 05:51 086 0 gusting 2 7.8
2018-Oct-15 05:42 046 7.8
2018-Oct-15 05:33 071 7.8
2018-Oct-15 05:24 073 7.8
2018-Oct-15 05:15 060 7.8
2018-Oct-15 05:06 096 0 gusting 3 7.8
2018-Oct-15 04:57 104 1 gusting 3 7.8
2018-Oct-15 04:48 128 7.8
2018-Oct-15 04:39 103 7.8
2018-Oct-15 04:30 087 8.3
2018-Oct-15 04:21 076 8.3
2018-Oct-15 04:12 069 8.3
2018-Oct-15 04:03 079 7.8
2018-Oct-15 03:54 068 7.8
2018-Oct-15 03:45 077 2 gusting 4 8.3
2018-Oct-15 03:36 075 1 gusting 4 7.8
2018-Oct-15 03:27 077 1 gusting 3 7.8
2018-Oct-15 03:18 099 1 gusting 3 7.8
2018-Oct-15 03:09 103 7.8
2018-Oct-15 03:00 7.8